Wind_Speed
31 30 30 31 32 33 34 35 35 34 33 31 32 34 36 36 37 37 36 36 36 36 37 38 39 39 40 40 40 40 41 41 42 42 43 44 44 45 45 44 44 43 43 43
31 31 31 32 33 34 35 35 35 35 34 32 33 35 36 37 37 37 37 37 37 37 37 37 38 39 39 40 40 40 40 41 41 41 42 43 44 44 44 43 43 43 42 42
30 29 31 32 31 32 34 34 34 35 34 34 35 36 36 37 38 38 38 38 37 37 37 37 37 38 39 39 40 40 40 41 41 41 42 43 43 43 43 43 43 43 42 42
30 30 32 30 29 30 31 32 33 34 34 34 35 35 36 37 37 38 38 38 38 38 38 38 38 39 39 39 40 40 40 41 41 41 42 43 43 43 43 42 42 43 43 42
31 32 32 30 29 29 30 31 32 33 34 35 35 36 36 36 36 37 38 38 39 39 39 39 39 40 40 40 40 40 40 40 40 41 42 42 42 42 42 42 42 42 42 42
31 33 33 30 29 30 32 33 32 33 33 34 35 36 36 36 36 37 37 38 38 39 39 39 40 40 40 40 40 40 40 40 40 41 41 41 41 41 40 40 40 40 40 40
31 32 32 30 29 30 32 32 32 33 34 34 35 35 36 36 36 37 38 38 38 39 39 39 39 39 40 40 39 39 39 39 39 39 39 39 39 39 39 39 39 38 38 38
30 31 30 29 30 30 30 30 31 32 33 33 34 35 35 35 35 35 36 36 37 38 38 38 38 39 38 38 38 38 38 38 38 38 38 37 37 36 36 37 37 36 36 36
30 30 29 29 30 30 30 31 31 32 32 33 34 34 34 34 35 36 36 37 37 37 38 38 38 38 37 37 37 38 38 37 37 37 36 36 35 35 34 34 34 34 34 34
30 29 29 29 29 30 30 31 32 32 33 34 34 34 34 35 35 36 37 38 38 38 38 38 37 37 36 36 36 36 36 36 35 35 35 34 34 34 33 33 33 33 32 33
29 28 28 28 29 29 30 30 31 32 33 33 33 34 35 36 36 37 37 37 37 37 37 36 36 36 36 36 36 35 35 34 34 35 35 34 33 33 32 32 31 31 32 32
27 27 28 29 29 30 30 31 31 31 31 32 33 34 34 34 34 35 35 34 34 34 34 34 34 35 35 36 35 35 34 33 33 33 33 33 32 32 32 32 32 32 32 32
28 28 29 30 30 31 32 32 32 31 31 31 32 32 32 32 32 32 32 32 32 33 33 33 33 33 34 35 35 34 34 33 32 32 32 31 31 31 31 31 31 31 30 30
29 29 30 29 30 31 31 32 32 32 32 32 32 33 32 32 31 32 32 32 33 33 33 34 34 33 33 33 33 34 34 33 32 31 31 30 30 30 29 29 29 29 29 28
29 29 29 29 29 29 30 30 31 32 33 33 33 33 32 32 32 32 32 33 33 33 33 33 33 33 33 32 32 32 32 32 31 31 30 30 29 29 29 28 29 28 28 28
28 28 29 29 30 30 31 31 32 32 33 32 32 32 32 32 32 32 32 32 32 32 32 32 32 32 32 32 32 31 31 31 31 31 30 30 30 29 29 28 28 28 28 28
28 28 29 29 30 31 32 32 32 32 32 31 31 31 31 32 32 32 32 32 32 32 32 32 31 31 31 31 31 31 30 30 30 31 31 30 30 30 29 29 28 28 28 28
28 29 29 29 29 30 31 32 32 32 31 31 31 31 31 31 31 31 31 31 31 31 31 31 31 30 30 29 29 29 29 29 30 30 30 29 29 29 29 29 28 28 28 28
29 29 30 30 30 30 31 31 32 32 32 32 31 31 31 31 31 31 30 30 30 30 30 30 29 29 28 27 27 27 27 27 27 27 28 28 28 28 28 28 28 27 27 27
28 29 30 30 31 32 32 32 32 32 32 32 31 31 31 30 30 30 29 28 28 28 27 27 27 27 26 26 26 26 25 25 25 25 26 26 26 26 26 26 27 26 26 26
28 29 29 30 31 31 32 32 32 32 31 31 31 30 30 29 29 28 27 26 26 26 25 25 25 24 25 25 25 25 25 24 24 23 24 24 24 24 25 25 26 25 25 25
28 29 29 30 30 30 30 30 30 30 30 30 30 30 29 28 27 26 26 25 25 25 24 23 23 23 23 24 24 24 24 24 23 22 22 22 22 22 22 23 23 23 23 24
28 29 29 29 28 28 27 28 28 28 28 28 29 28 27 26 25 25 24 24 24 23 22 22 21 21 21 22 22 22 22 21 21 21 20 20 20 20 20 20 20 20 21 21
27 26 26 26 26 26 26 26 26 26 26 26 27 26 26 25 24 24 23 23 22 22 21 21 20 20 20 20 19 19 19 18 18 18 18 18 18 18 18 18 18 18 19 19
25 24 24 25 25 25 26 26 26 26 26 26 26 25 25 24 23 23 22 22 21 20 20 20 20 19 19 18 17 17 17 16 16 16 16 16 17 17 17 17 17 17 17 16
24 24 24 24 24 24 25 25 25 26 26 25 24 24 23 23 22 21 21 20 20 19 19 19 19 18 17 17 17 16 16 16 15 15 15 15 16 16 16 16 16 15 15 15
23 23 23 22 23 23 23 23 23 23 24 23 22 22 21 21 20 20 19 19 19 18 18 18 18 17 17 17 16 16 16 16 15 15 15 15 15 15 15 16 15 15 15 14
Wind_Direction
264 266 265 262 259 260 261 263 264 264 264 263 263 263 264 265 266 267 268 268 269 270 270 268 267 267 267 268 269 269 270 272 273 274 275 276 277 278 277 277 278 279 278 278
265 267 267 264 262 261 261 263 265 265 264 263 263 265 265 266 267 268 269 269 270 270 270 269 267 267 268 269 270 270 271 272 273 274 276 277 278 278 278 278 278 278 278 277
267 267 267 265 266 266 264 265 266 267 266 265 264 266 267 267 268 268 269 270 270 270 270 269 268 268 268 269 270 271 272 273 273 274 276 276 278 278 277 278 277 277 277 276
268 267 268 269 267 267 266 265 266 267 266 266 266 267 268 269 269 269 269 270 270 271 270 269 269 269 269 270 270 271 272 273 273 274 275 276 277 278 278 278 276 276 277 276
269 270 269 269 270 269 268 266 266 267 267 267 267 267 268 270 270 270 270 271 271 271 270 270 270 270 270 271 271 271 272 273 274 275 276 276 277 278 278 278 277 276 276 277
271 270 270 272 272 271 270 268 267 268 269 269 269 269 269 270 270 270 271 271 272 272 271 271 271 271 271 271 271 272 272 273 274 275 276 277 278 279 278 278 277 277 277 277
271 272 272 274 274 273 271 273 270 269 271 271 271 272 272 272 271 272 272 273 274 273 273 272 272 272 272 272 271 272 273 274 275 276 276 278 278 278 278 277 277 277 276 275
271 271 273 274 273 273 275 273 272 271 272 273 274 275 274 273 273 273 274 275 275 275 274 273 273 273 273 272 272 272 273 274 275 276 277 279 279 278 278 277 276 276 276 275
272 272 273 273 273 274 273 273 272 272 273 274 274 275 275 274 274 275 275 275 275 276 275 274 273 274 274 274 274 274 274 274 275 276 276 277 277 277 277 277 276 275 275 274
271 272 272 273 273 274 273 273 273 273 274 275 275 275 276 276 276 276 276 276 276 276 276 275 274 274 276 275 275 275 275 275 275 276 277 277 277 277 277 277 275 275 275 275
269 272 272 271 272 273 274 273 274 275 276 277 277 279 279 278 278 278 278 277 277 277 276 274 273 274 276 276 275 276 276 276 277 277 277 278 277 276 276 276 276 275 276 276
270 271 272 273 272 272 272 272 274 276 278 279 280 281 281 280 280 279 278 278 278 278 277 275 274 275 276 276 275 275 276 276 277 278 278 277 277 276 276 276 277 277 277 276
269 271 272 272 272 272 272 272 274 276 278 280 282 283 282 281 281 280 279 279 279 278 277 276 276 277 277 275 274 273 274 275 276 277 277 277 276 276 275 275 277 277 277 275
269 271 272 274 274 274 274 274 275 277 278 280 282 283 283 282 282 280 280 280 279 278 278 277 276 276 276 275 273 272 272 273 274 275 276 276 276 276 275 275 276 276 275 274
270 272 273 275 276 276 276 277 279 279 280 281 282 282 282 283 283 283 282 281 280 279 279 278 277 276 275 274 273 272 272 271 272 273 274 275 274 275 275 275 275 275 274 273
269 272 274 276 277 277 278 280 281 282 282 283 283 283 283 282 282 282 282 280 279 279 278 278 276 275 274 274 272 271 271 271 272 273 273 275 275 274 274 274 274 274 273 273
269 271 274 276 278 279 279 281 282 283 284 284 285 285 284 283 282 282 281 279 279 279 278 277 276 275 273 273 272 270 271 271 272 273 273 273 274 273 273 273 274 274 274 274
272 274 275 276 278 279 280 281 283 284 285 285 286 286 285 284 283 282 281 280 279 279 278 276 275 273 272 272 273 273 272 272 273 273 273 274 274 273 274 274 274 275 275 274
273 275 276 278 279 281 282 283 284 284 285 285 286 286 285 285 283 282 280 279 279 280 279 277 275 273 272 273 274 274 275 275 276 276 274 275 276 274 273 273 273 274 275 275
277 278 279 280 282 283 284 285 285 284 285 285 285 285 285 285 284 282 280 279 280 280 279 277 274 272 271 271 272 273 274 276 278 277 276 276 276 274 273 274 274 275 275 275
279 280 282 283 284 285 285 285 285 284 284 284 284 284 284 284 283 281 279 278 279 279 278 277 274 271 271 271 271 272 274 276 278 278 277 277 277 275 274 275 274 274 274 275
281 281 283 285 286 286 285 285 285 284 283 283 282 283 284 283 282 280 278 277 277 277 277 276 274 272 272 273 272 272 272 274 276 277 277 278 278 276 276 277 276 275 274 274
283 283 284 285 286 285 285 285 285 285 284 283 282 282 282 282 280 278 276 274 274 275 275 274 273 273 274 274 273 272 272 273 274 275 275 277 279 278 277 278 278 279 278 277
286 286 284 284 284 284 284 285 286 286 286 284 282 281 281 282 280 278 276 273 272 273 273 272 272 274 275 273 271 270 271 272 273 273 274 277 279 280 279 279 280 281 281 281
288 287 286 285 284 285 286 286 286 286 285 284 283 282 281 281 280 278 275 272 271 271 270 271 272 274 274 272 269 268 269 270 271 273 275 277 279 279 280 280 281 283 283 282
288 288 287 287 287 287 287 287 287 287 287 285 284 282 280 279 278 277 275 272 271 269 269 270 271 271 271 270 269 268 268 269 271 273 275 277 278 278 278 279 280 282 281 280
289 290 289 288 288 289 289 290 289 288 287 286 284 282 280 277 276 275 272 270 269 269 270 270 270 270 270 269 269 268 268 268 269 270 273 274 275 276 277 278 279 279 278 276
Height
5590 5590 5590 5591 5593 5593 5594 5595 5596 5599 5600 5602 5601 5601 5601 5602 5602 5603 5603 5604 5604 5603 5603 5602 5602 5602 5602 5601 5601 5600 5599 5599 5598 5597 5596 5594 5593 5591 5589 5588 5586 5584 5583 5581
5582 5582 5582 5582 5584 5585 5586 5587 5587 5589 5591 5592 5591 5591 5591 5592 5592 5593 5593 5593 5593 5593 5593 5592 5592 5591 5591 5590 5590 5589 5588 5587 5586 5585 5584 5583 5581 5579 5578 5576 5575 5573 5572 5570
5573 5574 5573 5574 5577 5577 5578 5579 5579 5579 5582 5582 5582 5582 5581 5582 5582 5582 5583 5583 5583 5582 5582 5581 5581 5580 5580 5580 5579 5578 5577 5576 5575 5574 5573 5571 5570 5568 5566 5565 5563 5562 5560 5559
5564 5566 5564 5570 5569 5569 5569 5570 5570 5570 5571 5572 5572 5572 5571 5571 5571 5571 5572 5572 5572 5571 5571 5570 5570 5569 5569 5568 5567 5567 5566 5564 5563 5562 5561 5559 5558 5556 5554 5553 5551 5550 5549 5548
5556 5555 5556 5560 5561 5561 5560 5561 5562 5562 5562 5562 5562 5562 5562 5562 5561 5561 5561 5561 5560 5560 5560 5559 5558 5558 5557 5557 5556 5555 5554 5553 5552 5550 5549 5547 5546 5544 5543 5541 5540 5539 5537 5536
5548 5547 5548 5553 5553 5551 5551 5551 5553 5552 5552 5552 5552 5552 5553 5552 5551 5550 5550 5550 5549 5549 5548 5548 5547 5546 5546 5545 5544 5543 5542 5541 5540 5539 5537 5535 5534 5532 5531 5529 5528 5527 5526 5525
5540 5539 5540 5544 5543 5543 5544 5545 5544 5543 5542 5542 5542 5542 5542 5541 5540 5540 5539 5539 5538 5538 5537 5536 5536 5535 5534 5533 5533 5532 5531 5529 5528 5527 5526 5524 5523 5521 5520 5518 5517 5516 5515 5514
5532 5531 5535 5536 5535 5535 5535 5534 5533 5533 5533 5533 5532 5532 5531 5530 5530 5529 5529 5528 5527 5527 5526 5525 5524 5523 5522 5522 5521 5521 5520 5519 5518 5516 5515 5513 5512 5510 5509 5507 5506 5505 5504 5504
5525 5527 5527 5526 5526 5526 5526 5525 5525 5524 5524 5523 5522 5522 5521 5520 5519 5519 5518 5517 5516 5515 5515 5514 5513 5512 5511 5511 5510 5509 5508 5507 5506 5505 5504 5502 5501 5499 5498 5497 5496 5495 5494 5493
5516 5517 5518 5518 5517 5517 5517 5516 5516 5515 5515 5514 5513 5512 5511 5510 5509 5508 5507 5506 5505 5504 5503 5503 5502 5501 5501 5500 5499 5498 5497 5497 5496 5494 5493 5492 5491 5489 5488 5487 5486 5485 5484 5484
5508 5509 5509 5509 5509 5509 5508 5507 5507 5506 5505 5504 5503 5502 5501 5500 5499 5498 5496 5495 5494 5493 5492 5492 5491 5491 5490 5489 5488 5487 5487 5486 5485 5484 5483 5482 5481 5479 5478 5477 5476 5476 5475 5474
5500 5501 5501 5501 5501 5500 5499 5498 5498 5497 5496 5495 5493 5492 5491 5490 5489 5487 5486 5485 5484 5483 5482 5481 5481 5480 5479 5478 5477 5477 5476 5476 5475 5474 5473 5472 5471 5470 5469 5468 5467 5466 5465 5464
5491 5491 5491 5492 5491 5491 5490 5489 5489 5488 5487 5486 5484 5483 5481 5480 5479 5477 5476 5475 5474 5473 5472 5471 5470 5470 5469 5467 5466 5466 5466 5465 5465 5464 5463 5462 5461 5460 5460 5459 5458 5457 5456 5456
5482 5482 5483 5483 5482 5482 5481 5480 5480 5479 5478 5476 5475 5474 5472 5470 5469 5468 5466 5465 5464 5463 5462 5461 5460 5459 5458 5457 5456 5456 5455 5455 5455 5454 5453 5453 5452 5451 5450 5450 5449 5449 5448 5448
5474 5474 5474 5474 5474 5473 5472 5471 5470 5470 5468 5467 5466 5464 5462 5461 5460 5458 5457 5455 5454 5453 5452 5451 5450 5449 5448 5446 5446 5445 5445 5445 5445 5444 5444 5443 5443 5442 5442 5441 5441 5440 5440 5440
5466 5466 5466 5465 5465 5464 5463 5462 5461 5460 5459 5457 5456 5454 5453 5451 5450 5448 5447 5445 5444 5443 5442 5441 5440 5439 5438 5437 5436 5436 5436 5435 5435 5435 5435 5434 5433 5433 5433 5433 5433 5432 5432 5432
5458 5458 5457 5457 5457 5456 5455 5453 5452 5451 5449 5448 5446 5445 5443 5441 5440 5438 5437 5435 5434 5433 5432 5431 5430 5429 5428 5427 5426 5426 5426 5426 5426 5425 5425 5425 5424 5424 5424 5424 5424 5424 5423 5423
5450 5449 5449 5448 5447 5446 5445 5444 5443 5441 5440 5438 5437 5435 5433 5431 5430 5428 5427 5425 5424 5423 5422 5421 5420 5419 5418 5418 5417 5417 5417 5416 5416 5416 5416 5416 5415 5415 5415 5415 5415 5415 5415 5414
5441 5441 5440 5439 5438 5437 5436 5435 5433 5432 5430 5428 5427 5425 5423 5421 5420 5418 5417 5416 5414 5414 5413 5411 5410 5410 5409 5409 5408 5408 5408 5407 5407 5407 5407 5407 5406 5406 5406 5406 5407 5406 5406 5406
5432 5431 5431 5430 5428 5427 5426 5425 5423 5422 5420 5418 5417 5415 5414 5412 5410 5409 5407 5406 5405 5404 5403 5402 5401 5401 5401 5400 5400 5400 5399 5399 5399 5398 5398 5398 5398 5398 5398 5398 5398 5398 5398 5398
5424 5423 5421 5420 5419 5417 5416 5414 5413 5412 5410 5408 5407 5406 5404 5403 5401 5400 5398 5398 5397 5396 5395 5394 5393 5393 5393 5392 5392 5392 5392 5391 5391 5391 5390 5390 5390 5390 5390 5390 5390 5390 5390 5390
5415 5414 5412 5411 5409 5408 5406 5404 5403 5402 5400 5399 5397 5396 5395 5394 5392 5391 5390 5389 5389 5388 5387 5386 5386 5385 5385 5385 5384 5384 5384 5384 5384 5383 5383 5383 5383 5383 5383 5383 5383 5382 5382 5382
5406 5404 5403 5401 5400 5398 5397 5395 5394 5392 5391 5389 5388 5387 5386 5385 5384 5383 5382 5382 5381 5380 5380 5379 5379 5378 5378 5378 5377 5377 5377 5377 5377 5377 5377 5377 5377 5377 5377 5376 5376 5376 5375 5375
5397 5396 5394 5393 5391 5390 5389 5387 5386 5384 5382 5381 5379 5378 5377 5376 5376 5375 5374 5374 5373 5373 5373 5372 5372 5372 5371 5371 5370 5370 5370 5370 5371 5371 5371 5371 5371 5371 5371 5371 5370 5370 5369 5369
5390 5388 5387 5385 5384 5382 5381 5379 5378 5376 5374 5373 5372 5370 5369 5368 5368 5367 5367 5366 5366 5366 5366 5366 5366 5365 5365 5364 5364 5364 5365 5365 5365 5365 5366 5366 5366 5366 5366 5365 5365 5365 5364 5364
5382 5381 5379 5377 5376 5374 5373 5371 5369 5368 5366 5365 5364 5363 5362 5361 5360 5360 5359 5359 5359 5359 5360 5360 5359 5359 5359 5359 5358 5359 5359 5359 5360 5360 5361 5361 5361 5361 5361 5361 5360 5360 5360 5359
5375 5373 5372 5370 5369 5367 5365 5363 5362 5360 5359 5357 5356 5355 5354 5354 5353 5353 5353 5353 5353 5353 5354 5354 5354 5353 5353 5353 5353 5353 5354 5354 5355 5355 5356 5356 5356 5356 5356 5356 5356 5355 5355 5355